This is the latest recevied weather packets stored in our database for station/object N5JXS. If no packets are shown the sender has not sent any weather packets the latest 10 day(s).
| Time | Temp. | Humidity | Pressure | Rain* | Wind** | Luminosity | Snow |
|---|---|---|---|---|---|---|---|
| 1788568389 | 27.22° C | 27% | 1023.6 hPa | 0 mm | - | 20 W/m² | - |
| 1788568089 | 27.78° C | 27% | 1023.6 hPa | 0 mm | - | 34 W/m² | - |
| 1788567783 | 28.33° C | 27% | 1023.5 hPa | 0 mm | - | 37 W/m² | - |
| 1788567478 | 27.78° C | 27% | 1023.5 hPa | 0 mm | - | 61 W/m² | - |
| 1788567178 | 27.78° C | 27% | 1023.4 hPa | 0 mm | - | 60 W/m² | - |
| 1788566873 | 27.78° C | 27% | 1023.5 hPa | 0 mm | - | 44 W/m² | - |
| 1788566569 | 27.78° C | 27% | 1023.5 hPa | 0 mm | - | 68 W/m² | - |
| 1788566264 | 27.78° C | 27% | 1023.5 hPa | 0 mm | - | 35 W/m² | - |
| 1788565958 | 27.78° C | 27% | 1023.5 hPa | 0 mm | - | 30 W/m² | - |
| 1788565675 | 28.33° C | 27% | 1023.4 hPa | 0 mm | - | 23 W/m² | - |
| 1788565348 | 28.33° C | 26% | 1023.5 hPa | 0 mm | - | 44 W/m² | - |
| 1788565044 | 28.33° C | 26% | 1023.4 hPa | 0 mm | - | 31 W/m² | - |
| 1788564740 | 28.89° C | 26% | 1023.2 hPa | 0 mm | - | 29 W/m² | - |
| 1788564437 | 28.89° C | 26% | 1023.2 hPa | 0 mm | - | 81 W/m² | - |
| 1788564133 | 28.89° C | 26% | 1023.2 hPa | 0 mm | - | 51 W/m² | - |
| 1788563827 | 28.89° C | 26% | 1023.4 hPa | 0 mm | - | 104 W/m² | - |
| 1788563523 | 28.89° C | 26% | 1023.2 hPa | 0 mm | - | 44 W/m² | - |
| 1788563217 | 28.89° C | 26% | 1023.2 hPa | 0 mm | - | 42 W/m² | - |
| 1788562912 | 28.89° C | 26% | 1023.2 hPa | 0 mm | - | 42 W/m² | - |
| 1788562610 | 28.33° C | 26% | 1023.4 hPa | 0 mm | - | 56 W/m² | - |
| 1788562305 | 28.33° C | 27% | 1023 hPa | 0 mm | - | 104 W/m² | - |
| 1788561999 | 28.89° C | 26% | 1023.2 hPa | 0 mm | - | 31 W/m² | - |
| 1788561699 | 29.44° C | 26% | 1023.2 hPa | 0 mm | - | 46 W/m² | - |
| 1788561393 | 29.44° C | 25% | 1023.1 hPa | 0 mm | - | 49 W/m² | - |
| 1788561089 | 29.44° C | 26% | 1023.2 hPa | 0 mm | - | 68 W/m² | - |
* Rain latest hour (hover to see other rain measurements)
** Current wind speed in m/s (hover to see current wind gust speed)